| time (UTC) | temp F | wind direction | speed MPH | gust MPH | rain 1hr in | rain 24hr in | rain mn in | humidity % | barometer mb |
| 20260505163057 | 37 | 0 | 0.0 | 3.0 | 0.01 | 0.42 | 0.28 | 92 | 1014.4 |
| 20260505161600 | 36 | 37 | 0.0 | 2.0 | 0.02 | 0.42 | 0.28 | 93 | 1014.5 |
| 20260505153055 | 35 | 0 | 0.0 | 4.0 | 0.03 | 0.41 | 0.27 | 92 | 1014.9 |
| 20260505151558 | 35 | 0 | 0.0 | 4.0 | 0.03 | 0.40 | 0.26 | 92 | 1014.9 |
| 20260505150125 | 35 | 302 | 0.0 | 3.0 | 0.03 | 0.40 | 0.26 | 92 | 1015.0 |
| 20260505130103 | 34 | 0 | 0.0 | 3.0 | 0.01 | 0.35 | 0.21 | 91 | 1014.4 |
| 20260505124559 | 34 | 0 | 1.0 | 4.0 | 0.02 | 0.35 | 0.21 | 91 | 1014.1 |
| 20260505123101 | 34 | 9 | 0.0 | 4.0 | 0.02 | 0.35 | 0.21 | 91 | 1014.0 |
| 20260505121623 | 34 | 344 | 1.0 | 5.0 | 0.02 | 0.34 | 0.20 | 91 | 1014.1 |
| 20260505120055 | 36 | 341 | 1.0 | 4.0 | 0.02 | 0.34 | 0.20 | 91 | 1013.8 |
| 20260505114555 | 36 | 352 | 2.0 | 4.0 | 0.02 | 0.33 | 0.19 | 91 | 1013.8 |
| 20260505113059 | 36 | 338 | 2.0 | 4.0 | 0.02 | 0.33 | 0.19 | 91 | 1013.7 |
| 20260505111557 | 36 | 343 | 3.0 | 8.0 | 0.02 | 0.32 | 0.18 | 91 | 1013.6 |
| 20260505101558 | 40 | 42 | 1.0 | 4.0 | 0.11 | 0.30 | 0.16 | 91 | 1012.6 |
| 20260505100137 | 40 | 30 | 0.0 | 5.0 | 0.07 | 0.26 | 0.12 | 91 | 1012.4 |
| 20260505094556 | 41 | 0 | 1.0 | 3.0 | 0.04 | 0.23 | 0.09 | 91 | 1012.1 |
| 20260505093056 | 41 | 0 | 1.0 | 3.0 | 0.01 | 0.19 | 0.05 | 91 | 1012.1 |
| 20260505091619 | 41 | 32 | 1.0 | 3.0 | 0.04 | 0.19 | 0.05 | 91 | 1011.8 |
| 20260505084600 | 43 | 105 | 1.0 | 5.0 | 0.05 | 0.19 | 0.05 | 91 | 1011.5 |
| 20260505083100 | 43 | 9 | 2.0 | 8.0 | 0.04 | 0.18 | 0.04 | 90 | 1011.6 |
| 20260505081604 | 43 | 342 | 2.0 | 6.0 | 0.01 | 0.15 | 0.01 | 90 | 1011.7 |
| 20260505080058 | 44 | 336 | 3.0 | 8.0 | 0.00 | 0.14 | 0.00 | 89 | 1011.5 |
| 20260505074558 | 46 | 352 | 3.0 | 6.0 | 0.00 | 0.14 | 0.00 | 88 | 1011.7 |
| 20260505073102 | 48 | 250 | 0.0 | 1.0 | 0.00 | 0.14 | 0.00 | 90 | 1011.7 |
| 20260505071558 | 47 | 0 | 0.0 | 0.0 | 0.00 | 0.14 | 0.00 | 90 | 1011.7 |
| 20260505070058 | 47 | 0 | 0.0 | 0.0 | 0.00 | 0.14 | 0.00 | 89 | 1011.3 |
| 20260505064609 | 47 | 0 | 0.0 | 2.0 | 0.00 | 0.14 | 0.00 | 89 | 1011.3 |
| 20260505063103 | 47 | 0 | 0.0 | 1.0 | 0.00 | 0.14 | 0.00 | 89 | 1011.4 |
| 20260505061559 | 47 | 0 | 0.0 | 2.0 | 0.00 | 0.14 | 0.00 | 89 | 1011.5 |
| 20260505060059 | 47 | 0 | 0.0 | 2.0 | 0.00 | 0.14 | 0.00 | 89 | 1011.5 |
| 20260505054620 | 47 | 0 | 0.0 | 1.0 | 0.00 | 0.14 | 0.14 | 89 | 1011.6 |
| 20260505053101 | 47 | 0 | 0.0 | 1.0 | 0.00 | 0.14 | 0.14 | 88 | 1011.3 |
| 20260505051556 | 48 | 0 | 0.0 | 1.0 | 0.00 | 0.14 | 0.14 | 88 | 1011.3 |
| 20260505041612 | 48 | 248 | 1.0 | 4.0 | 0.08 | 0.14 | 0.14 | 87 | 1011.8 |
| 20260505040109 | 48 | 0 | 0.0 | 3.0 | 0.11 | 0.13 | 0.13 | 86 | 1011.7 |
| 20260505034600 | 49 | 242 | 1.0 | 3.0 | 0.13 | 0.13 | 0.13 | 86 | 1011.7 |
| 20260505033103 | 49 | 0 | 0.0 | 3.0 | 0.10 | 0.10 | 0.10 | 85 | 1011.9 |
| 20260505031604 | 49 | 276 | 0.0 | 4.0 | 0.06 | 0.06 | 0.06 | 83 | 1011.5 |
| 20260505030109 | 50 | 284 | 2.0 | 5.0 | 0.02 | 0.02 | 0.02 | 78 | 1011.4 |
| 20260505024605 | 51 | 311 | 3.0 | 5.0 | 0.00 | 0.00 | 0.00 | 75 | 1010.8 |
| 20260505023109 | 52 | 301 | 2.0 | 5.0 | 0.00 | 0.00 | 0.00 | 72 | 1010.6 |
| 20260505021600 | 52 | 0 | 1.0 | 2.0 | 0.00 | 0.00 | 0.00 | 68 | 1010.4 |
| 20260505020107 | 53 | 0 | 1.0 | 5.0 | 0.00 | 0.00 | 0.00 | 68 | 1010.6 |
| 20260505014601 | 53 | 0 | 1.0 | 3.0 | 0.00 | 0.00 | 0.00 | 68 | 1010.6 |
| 20260505013101 | 54 | 306 | 0.0 | 8.0 | 0.00 | 0.00 | 0.00 | 66 | 1010.4 |
| 20260505011557 | 56 | 43 | 0.0 | 4.0 | 0.00 | 0.00 | 0.00 | 62 | 1009.9 |
| 20260505010111 | 57 | 360 | 1.0 | 3.0 | 0.00 | 0.00 | 0.00 | 56 | 1009.8 |
| 20260505004557 | 58 | 325 | 0.0 | 3.0 | 0.00 | 0.00 | 0.00 | 54 | 1009.8 |
| 20260505003055 | 58 | 0 | 1.0 | 5.0 | 0.00 | 0.00 | 0.00 | 52 | 1009.5 |
| 20260505001558 | 58 | 332 | 1.0 | 6.0 | 0.00 | 0.00 | 0.00 | 52 | 1009.4 |
| 20260505000105 | 59 | 360 | 2.0 | 5.0 | 0.00 | 0.00 | 0.00 | 50 | 1009.4 |
| 20260504234558 | 61 | 360 | 1.0 | 4.0 | 0.00 | 0.00 | 0.00 | 44 | 1009.3 |
| 20260504233103 | 61 | 360 | 0.0 | 3.0 | 0.00 | 0.00 | 0.00 | 44 | 1009.3 |
| 20260504231557 | 61 | 360 | 2.0 | 8.0 | 0.00 | 0.00 | 0.00 | 43 | 1009.2 |
| 20260504230113 | 62 | 360 | 1.0 | 5.0 | 0.00 | 0.00 | 0.00 | 43 | 1009.3 |
| 20260504224626 | 62 | 360 | 0.0 | 3.0 | 0.00 | 0.00 | 0.00 | 40 | 1009.4 |
| 20260504223100 | 62 | 360 | 2.0 | 5.0 | 0.00 | 0.00 | 0.00 | 39 | 1009.1 |
| 20260504221557 | 63 | 360 | 1.0 | 5.0 | 0.00 | 0.00 | 0.00 | 38 | 1008.6 |
| 20260504220059 | 64 | 32 | 1.0 | 6.0 | 0.00 | 0.00 | 0.00 | 36 | 1008.1 |
| 20260504214558 | 66 | 351 | 4.0 | 12.0 | 0.00 | 0.00 | 0.00 | 36 | 1007.9 |
| 20260504213102 | 67 | 352 | 3.0 | 13.0 | 0.00 | 0.00 | 0.00 | 35 | 1008.3 |
| 20260504211601 | 66 | 352 | 4.0 | 11.0 | 0.00 | 0.00 | 0.00 | 37 | 1008.6 |
| 20260504210104 | 67 | 11 | 3.0 | 10.0 | 0.00 | 0.00 | 0.00 | 32 | 1008.8 |
| 20260504204602 | 68 | 0 | 0.0 | 3.0 | 0.00 | 0.00 | 0.00 | 29 | 1008.5 |
| 20260504203057 | 66 | 0 | 0.0 | 2.0 | 0.00 | 0.00 | 0.00 | 32 | 1008.5 |
| 20260504201607 | 65 | 0 | 0.0 | 8.0 | 0.00 | 0.00 | 0.00 | 35 | 1008.2 |
| 20260504200104 | 66 | 232 | 2.0 | 11.0 | 0.00 | 0.00 | 0.00 | 32 | 1008.1 |
| 20260504194556 | 70 | 227 | 2.0 | 7.0 | 0.00 | 0.00 | 0.00 | 26 | 1008.0 |
| 20260504193055 | 72 | 290 | 1.0 | 8.0 | 0.00 | 0.00 | 0.00 | 23 | 1007.7 |
| 20260504191609 | 73 | 290 | 2.0 | 7.0 | 0.00 | 0.00 | 0.00 | 22 | 1007.6 |
| 20260504190056 | 72 | 309 | 5.0 | 10.0 | 0.00 | 0.00 | 0.00 | 23 | 1007.6 |
| 20260504184557 | 72 | 325 | 3.0 | 11.0 | 0.00 | 0.00 | 0.00 | 24 | 1007.5 |
| 20260504183100 | 72 | 307 | 3.0 | 9.0 | 0.00 | 0.00 | 0.00 | 24 | 1007.8 |
| 20260504181559 | 72 | 326 | 3.0 | 10.0 | 0.00 | 0.00 | 0.00 | 26 | 1008.0 |
| 20260504180057 | 70 | 338 | 5.0 | 11.0 | 0.00 | 0.00 | 0.00 | 27 | 1008.2 |
| 20260504174559 | 69 | 323 | 6.0 | 12.0 | 0.00 | 0.00 | 0.00 | 29 | 1008.5 |
| 20260504173056 | 68 | 286 | 4.0 | 11.0 | 0.00 | 0.00 | 0.00 | 30 | 1008.8 |
| 20260504171556 | 68 | 315 | 3.0 | 9.0 | 0.00 | 0.00 | 0.00 | 30 | 1009.0 |